Погода в Шабельском

Россия / Краснодарский край     46°51′07″N   38°28′23″E
темп.,
°C
ветер,
м/с
пор.,
м/с
влажн.,
%
обл.,
%
осадки,
мм/ч
давл.,
гПа
погр.,
м
20 мая, пт
пт2000:00+13ссз8128184 0.4 1016715
03:00+12сз578459 0.4 1017247
06:00+13зсз577795 0.0 1018240
09:00+16з7106594 0.1 1018553
12:00+18зсз795731 0.6 10181466
15:00+19з795295 0.6 10171751
18:00+17зсз596598 0.1 1017519
21:00+15з597171 0.1 1018251
21 мая, сб
сб2100:00+15зюз597768 0.1 1017176
03:00+15з81282100 0.4 1016491
06:00+16зюз9157397 0.1 1015614
09:00+18юз10156285 0.1 1014957
12:00+19зюз121765100 0.0 1013906
15:00+19юз13196879 0.0 10121057
18:00+17юз142168100 0.0 1011873
21:00+16юз13206992 0.0 1010713
22 мая, вс
вс2200:00+16юз12196897 0.0 1009684
03:00+16зюз12177295 0.0 1007647
06:00+15зюз101483100 0.9 1005565
09:00+15зюз91496100 5.6 1005683
12:00+17зюз91180100 0.3 10051056
15:00+18зюз91073100 0.6 10041010
18:00+16юз71082100 0.3 1003430
21:00+14зюз6108499 1.4 1002279
23 мая, пн
пн2300:00+14з597757 1.5 1002385
03:00+13сз468363 2.6 1002244
06:00+12зсз468540 0.3 1003356
09:00+13зсз4583100 1.6 1003509
12:00+14зсз557875 1.1 1004757
15:00+15ссз557690 2.3 1004814
18:00+14ссв668195 0.7 1005762
21:00+13ссв5772100 0.7 1007520
24 мая, вт
вт2400:00+12ссв567494 0.0 1008444
03:00+12ссв4678100 0.2 1009346
06:00+12ссв5781100 0.5 1010309
09:00+13ссв567497 1.6 1012556
12:00+15св34605 0.6 10131073
15:00+16ссз34525 0.6 10141397
18:00+15с44585 0.0 10151231
21:00+13ссз24543 0.0 1016375